Tyler, TX

5:29 AM CST on January 23, 2017 (GMT -0600)
Tyler Pounds

Weather History for KTYR - August, 2014

Change the Weather History Date:

Sunday, August 17, 2014

  Actual Average Record
Temperature  
Mean Temperature 84 °F 84 °F  
Max Temperature 88 °F 93 °F 105 °F (1956)
Min Temperature 79 °F 74 °F 56 °F (1992)
Degree Days  
Heating Degree Days 0 0  
Month to date heating degree days 0 0  
Since 1 June heating degree days 0 0  
Since 1 July heating degree days 0 0  
Cooling Degree Days 19 19  
Month to date cooling degree days 299 323  
Year to date cooling degree days 1679 1681  
Since 1 June cooling degree days 1286 1312  
Growing Degree Days 34 (Base 50)    
Moisture  
Dew Point 74 °F    
Average Humidity 71    
Maximum Humidity 79    
Minimum Humidity 63    
Precipitation  
Precipitation 0.00 in 0.10 in 2.22 in (1961)
Month to date precipitation 0.03 1.40  
Year to date precipitation 21.32 27.80  
Snow  
Snow 0.00 in - - ()
Month to date snowfall 0.0  
Since 1 June snowfall 0.0  
Since 1 July snowfall 0.0  
Snow Depth 0.00 in    
Sea Level Pressure  
Sea Level Pressure 29.95 in    
Wind  
Wind Speed 7 mph (SW)    
Max Wind Speed 17 mph    
Max Gust Speed 22 mph    
Visibility 10 miles    
Events      
T = Trace of Precipitation, MM = Missing Value Source: NWS Daily Summary

Daily Weather History Graph

Daily Weather History Graph

Search for Another Location

Airport or City:

Trip Planner

Search our weather history database for the weather conditions in past years. The results will help you decide how hot, cold, wet, or windy it might be!

Date:

Astronomy

Aug. 17, 2014 Rise Set
Actual Time 6:46 AM CDT 8:03 PM CDT
Civil Twilight 6:21 AM CDT 8:29 PM CDT
Nautical Twilight 5:50 AM CDT 9:00 PM CDT
Astronomical Twilight 5:18 AM CDT 9:31 PM CDT
Moon 12:14 AM CDT (8/17) 2:06 PM CDT (8/17)
Length of Visible Light 14h 08m
Length of Day
13h 16m
Waning Gibbous, 48% of the Moon is Illuminated
Aug 17
Waning Gibbous
Aug 25
New
Sep 2
First Quarter
Sep 8
Full
Sep 15
Last Quarter

Hourly Weather History & Observations

Time (CDT) Temp. Heat Index Dew Point Humidity Pressure Visibility Wind Dir Wind Speed Gust Speed Precip Events Conditions
12:53 AM 82.0 °F 86.7 °F 72.0 °F 71% 29.91 in 10.0 mi South 10.4 mph - N/A   Clear
2:53 AM 80.1 °F 83.8 °F 72.0 °F 76% 29.91 in 10.0 mi South 6.9 mph - N/A   Clear
3:53 AM 80.1 °F 84.2 °F 73.0 °F 79% 29.91 in 10.0 mi South 10.4 mph - N/A   Clear
4:53 AM 80.1 °F 84.5 °F 73.9 °F 81% 29.92 in 10.0 mi South 10.4 mph - N/A   Mostly Cloudy
5:25 AM 80.6 °F 85.4 °F 73.4 °F 79% 29.95 in 10.0 mi South 12.7 mph - N/A   Scattered Clouds
5:36 AM 80.6 °F 85.4 °F 73.4 °F 79% 29.96 in 10.0 mi South 12.7 mph - N/A   Mostly Cloudy
5:53 AM 80.1 °F 84.5 °F 73.9 °F 81% 29.94 in 10.0 mi SSW 12.7 mph - N/A   Mostly Cloudy
6:53 AM 80.1 °F 84.5 °F 73.9 °F 81% 29.94 in 10.0 mi SSW 11.5 mph - N/A   Mostly Cloudy
7:00 AM 80.6 °F 85.4 °F 73.4 °F 79% 29.96 in 10.0 mi SSW 9.2 mph - N/A   Scattered Clouds
7:27 AM 80.6 °F 85.4 °F 73.4 °F 79% 29.97 in 10.0 mi SSW 10.4 mph - N/A   Mostly Cloudy
7:53 AM 81.0 °F 86.2 °F 73.9 °F 79% 29.96 in 10.0 mi SSW 10.4 mph - N/A   Overcast
8:53 AM 82.9 °F 90.2 °F 75.0 °F 77% 29.98 in 10.0 mi SSW 11.5 mph 18.4 mph N/A   Mostly Cloudy
9:53 AM 84.9 °F 92.1 °F 73.9 °F 69% 29.98 in 10.0 mi SW 12.7 mph 17.3 mph N/A   Mostly Cloudy
10:23 AM 86.0 °F 93.4 °F 73.4 °F 66% 30.02 in 10.0 mi WSW 11.5 mph 21.9 mph N/A   Mostly Cloudy
10:53 AM 86.0 °F 93.0 °F 73.0 °F 65% 30.00 in 10.0 mi WSW 12.7 mph - N/A   Scattered Clouds
11:53 AM 86.0 °F 93.8 °F 73.9 °F 67% 30.00 in 10.0 mi WSW 6.9 mph - N/A   Mostly Cloudy
12:53 PM 87.1 °F 95.4 °F 73.9 °F 65% 29.99 in 10.0 mi WSW 8.1 mph - N/A   Mostly Cloudy
1:07 PM 86.0 °F 93.4 °F 73.4 °F 66% 30.01 in 10.0 mi WSW 8.1 mph - N/A   Overcast
1:21 PM 86.0 °F 93.4 °F 73.4 °F 66% 30.00 in 10.0 mi WSW 4.6 mph - N/A   Overcast
1:53 PM 86.0 °F 93.0 °F 73.0 °F 65% 29.98 in 10.0 mi West 6.9 mph - N/A   Partly Cloudy
2:53 PM 86.0 °F 93.8 °F 73.9 °F 67% 29.96 in 10.0 mi NW 5.8 mph - N/A   Clear
3:53 PM 86.0 °F 93.8 °F 73.9 °F 67% 29.94 in 10.0 mi WNW 4.6 mph - N/A   Clear
5:53 PM 87.1 °F 94.5 °F 73.0 °F 63% 29.89 in 10.0 mi Calm Calm - N/A   Clear
6:53 PM 87.1 °F 94.5 °F 73.0 °F 63% 29.89 in 10.0 mi SSE 3.5 mph - N/A   Clear
7:53 PM 86.0 °F 93.8 °F 73.9 °F 67% 29.91 in 10.0 mi Calm Calm - N/A   Clear
8:53 PM 84.0 °F 91.9 °F 75.0 °F 74% 29.91 in 10.0 mi Calm Calm - N/A   Clear
9:53 PM 82.9 °F 90.2 °F 75.0 °F 77% 29.92 in 10.0 mi Calm Calm - N/A   Clear
10:53 PM 82.0 °F 87.9 °F 73.9 °F 76% 29.92 in 10.0 mi South 4.6 mph - N/A   Clear
11:53 PM 81.0 °F 85.8 °F 73.0 °F 77% 29.91 in 10.0 mi South 6.9 mph - N/A   Clear